SAS9047 ENGM-ESGG

Flight info

Callsign SAS9047
Flight time 0h 41m
Altitude 27000
Route OKSAT L996 KELIN
Aircraft A320/M-SDE3FGHIJ1RWXYZ/ALB1

Departure

Time 2026-05-08 03:25
Airport Oslo-Gardermoen International Airport (ENGM)

Arrival

Time 2026-05-08 04:06
Airport Göteborg Landvetter Airport (ESGG)
Time Latitude Longitude Altitude Speed Heading
2026-05-08 02:47 60.19515 11.09817 682 ft 0 kts 183°
2026-05-08 03:12 60.19517 11.09817 685 ft 2 kts 183°
2026-05-08 03:12 60.19543 11.09817 679 ft 4 kts 175°
2026-05-08 03:13 60.19568 11.09809 678 ft 4 kts 164°
2026-05-08 03:13 60.19593 11.09791 684 ft 4 kts 152°
2026-05-08 03:13 60.19615 11.09763 678 ft 4 kts 138°
2026-05-08 03:13 60.19633 11.09724 680 ft 4 kts 123°
2026-05-08 03:14 60.19645 11.09678 678 ft 4 kts 110°
2026-05-08 03:14 60.19653 11.09628 683 ft 4 kts 101°
2026-05-08 03:14 60.19657 11.09576 683 ft 3 kts 104°
2026-05-08 03:14 60.19658 11.09569 683 ft 0 kts 106°
2026-05-08 03:18 60.19652 11.09609 683 ft 6 kts 106°
2026-05-08 03:18 60.19652 11.09712 678 ft 9 kts 62°
2026-05-08 03:19 60.19714 11.09769 684 ft 12 kts 16°
2026-05-08 03:19 60.19809 11.09821 684 ft 16 kts
2026-05-08 03:19 60.19838 11.09698 683 ft 8 kts 207°
2026-05-08 03:19 60.19772 11.09655 683 ft 11 kts 194°
2026-05-08 03:20 60.19739 11.09525 681 ft 14 kts 283°
2026-05-08 03:20 60.19731 11.09341 682 ft 17 kts 214°
2026-05-08 03:20 60.19720 11.09130 683 ft 17 kts 287°
2026-05-08 03:20 60.19654 11.08977 684 ft 17 kts 199°
2026-05-08 03:21 60.19533 11.08906 684 ft 20 kts 196°
2026-05-08 03:21 60.19514 11.08681 678 ft 19 kts 288°
2026-05-08 03:21 60.19489 11.08509 677 ft 13 kts 205°
2026-05-08 03:21 60.19390 11.08451 676 ft 17 kts 195°
2026-05-08 03:22 60.19265 11.08380 674 ft 21 kts 195°
2026-05-08 03:22 60.19133 11.08302 673 ft 19 kts 196°
2026-05-08 03:22 60.18993 11.08220 671 ft 22 kts 196°
2026-05-08 03:22 60.18874 11.08150 672 ft 18 kts 195°
2026-05-08 03:23 60.18740 11.08073 671 ft 22 kts 196°
2026-05-08 03:23 60.18608 11.07997 670 ft 19 kts 195°
2026-05-08 03:23 60.18541 11.07850 667 ft 17 kts 277°
2026-05-08 03:23 60.18577 11.07593 665 ft 20 kts 285°
2026-05-08 03:24 60.18687 11.07483 667 ft 21 kts 15°
2026-05-08 03:24 60.18943 11.07631 669 ft 76 kts 16°
2026-05-08 03:24 60.19705 11.08067 674 ft 148 kts 16°
2026-05-08 03:24 60.20788 11.08696 1196 ft 164 kts 16°
2026-05-08 03:25 60.21917 11.09350 1923 ft 178 kts 17°
2026-05-08 03:25 60.23185 11.10077 2250 ft 201 kts 17°
2026-05-08 03:25 60.24608 11.10891 2597 ft 224 kts 17°
2026-05-08 03:25 60.26218 11.11360 3020 ft 247 kts 356°
2026-05-08 03:26 60.28003 11.10877 3512 ft 267 kts 351°
2026-05-08 03:26 60.29880 11.10716 4312 ft 276 kts 12°
2026-05-08 03:26 60.31564 11.12482 5187 ft 277 kts 47°
2026-05-08 03:26 60.32484 11.15825 6077 ft 274 kts 82°
2026-05-08 03:27 60.32452 11.19626 6948 ft 273 kts 100°
2026-05-08 03:27 60.32468 11.23483 7762 ft 282 kts 81°
2026-05-08 03:27 60.33104 11.27261 8647 ft 288 kts 65°
2026-05-08 03:27 60.34017 11.30889 9504 ft 292 kts 64°
2026-05-08 03:28 60.34950 11.34584 10322 ft 298 kts 63°
2026-05-08 03:28 60.35927 11.38446 10662 ft 320 kts 63°
2026-05-08 03:28 60.36954 11.42505 11251 ft 329 kts 63°
2026-05-08 03:28 60.37864 11.46790 11966 ft 335 kts 76°
2026-05-08 03:29 60.38113 11.49934 12460 ft 337 kts 89°
2026-05-08 03:29 60.37615 11.56107 13454 ft 341 kts 114°
2026-05-08 03:29 60.36876 11.58978 13953 ft 342 kts 126°
2026-05-08 03:29 60.35260 11.62486 14609 ft 342 kts 146°
2026-05-08 03:30 60.30853 11.65676 15916 ft 342 kts 178°
2026-05-08 03:30 60.26054 11.66561 17252 ft 351 kts 179°
2026-05-08 03:31 60.20959 11.67511 18602 ft 360 kts 178°
2026-05-08 03:31 60.15959 11.68466 19859 ft 367 kts 178°
2026-05-08 03:32 60.13370 11.68965 20556 ft 370 kts 178°
2026-05-08 03:32 60.10832 11.69449 21245 ft 373 kts 178°
2026-05-08 03:32 60.08205 11.69944 21909 ft 376 kts 178°
2026-05-08 03:32 60.05094 11.70528 22688 ft 379 kts 178°
2026-05-08 03:33 60.03066 11.70908 23201 ft 382 kts 178°
2026-05-08 03:33 60.00193 11.71442 23901 ft 385 kts 178°
2026-05-08 03:33 59.97529 11.71937 24469 ft 388 kts 178°
2026-05-08 03:33 59.94690 11.72462 25078 ft 391 kts 179°
2026-05-08 03:34 59.91970 11.72971 25649 ft 393 kts 178°
2026-05-08 03:34 59.89236 11.73482 26229 ft 396 kts 178°
2026-05-08 03:34 59.86567 11.73984 26770 ft 398 kts 178°
2026-05-08 03:34 59.83798 11.74498 27147 ft 400 kts 178°
2026-05-08 03:35 59.81033 11.75009 27225 ft 394 kts 178°
2026-05-08 03:35 59.78345 11.75515 27235 ft 381 kts 178°
2026-05-08 03:35 59.75745 11.76004 27232 ft 370 kts 179°
2026-05-08 03:35 59.73231 11.76475 27232 ft 358 kts 179°
2026-05-08 03:36 59.70792 11.76929 27234 ft 345 kts 179°
2026-05-08 03:36 59.68450 11.77361 27234 ft 333 kts 179°
2026-05-08 03:36 59.66183 11.77778 27233 ft 320 kts 179°
2026-05-08 03:36 59.64011 11.78345 27218 ft 312 kts 171°
2026-05-08 03:37 59.61922 11.79458 27231 ft 311 kts 168°
2026-05-08 03:37 59.59844 11.80640 27231 ft 310 kts 168°
2026-05-08 03:37 59.57763 11.81813 27236 ft 312 kts 168°
2026-05-08 03:37 59.55667 11.82991 27237 ft 314 kts 168°
2026-05-08 03:38 59.53566 11.84171 27234 ft 314 kts 168°
2026-05-08 03:38 59.51460 11.85355 27237 ft 315 kts 168°
2026-05-08 03:38 59.49352 11.86537 27236 ft 315 kts 168°
2026-05-08 03:38 59.47241 11.87719 27237 ft 316 kts 168°
2026-05-08 03:39 59.45124 11.88909 27237 ft 317 kts 168°
2026-05-08 03:39 59.42999 11.90105 27236 ft 318 kts 168°
2026-05-08 03:39 59.40874 11.91298 27237 ft 318 kts 168°
2026-05-08 03:39 59.38745 11.92488 27237 ft 319 kts 168°
2026-05-08 03:40 59.36604 11.93681 27238 ft 319 kts 168°
2026-05-08 03:40 59.34464 11.94832 27238 ft 319 kts 172°
2026-05-08 03:40 59.32281 11.95454 27234 ft 316 kts 180°
2026-05-08 03:40 59.30097 11.95420 27240 ft 313 kts 186°
2026-05-08 03:41 59.27914 11.95173 27240 ft 315 kts 186°
2026-05-08 03:41 59.25730 11.94932 27239 ft 315 kts 186°
2026-05-08 03:41 59.23538 11.94692 27239 ft 316 kts 186°
2026-05-08 03:41 59.21343 11.94454 27239 ft 316 kts 186°
2026-05-08 03:42 59.19143 11.94219 27242 ft 317 kts 186°
2026-05-08 03:42 59.16936 11.93987 27242 ft 318 kts 186°
2026-05-08 03:42 59.14732 11.93756 27242 ft 318 kts 186°
2026-05-08 03:42 59.12524 11.93523 27242 ft 318 kts 186°
2026-05-08 03:43 59.10315 11.93286 27241 ft 318 kts 186°
2026-05-08 03:43 59.08107 11.93048 27242 ft 318 kts 186°
2026-05-08 03:43 59.05903 11.92809 27242 ft 318 kts 186°
2026-05-08 03:43 59.03693 11.92570 27237 ft 317 kts 185°
2026-05-08 03:44 59.01488 11.92332 27237 ft 317 kts 185°
2026-05-08 03:44 58.99285 11.92091 27239 ft 317 kts 185°
2026-05-08 03:44 58.97082 11.91848 27239 ft 317 kts 185°
2026-05-08 03:44 58.94878 11.91610 27239 ft 317 kts 185°
2026-05-08 03:45 58.92671 11.91374 27241 ft 317 kts 185°
2026-05-08 03:45 58.90470 11.91135 27242 ft 317 kts 185°
2026-05-08 03:45 58.88266 11.90897 27241 ft 317 kts 185°
2026-05-08 03:45 58.86059 11.90660 27241 ft 317 kts 185°
2026-05-08 03:46 58.83858 11.90426 27243 ft 317 kts 185°
2026-05-08 03:46 58.81652 11.90235 27238 ft 318 kts 181°
2026-05-08 03:46 58.79444 11.90568 27239 ft 320 kts 174°
2026-05-08 03:46 58.77243 11.91181 27238 ft 320 kts 174°
2026-05-08 03:47 58.75040 11.91785 27234 ft 319 kts 174°
2026-05-08 03:47 58.72847 11.92384 27238 ft 319 kts 174°
2026-05-08 03:47 58.70650 11.92981 27229 ft 319 kts 174°
2026-05-08 03:47 58.68428 11.93582 26765 ft 324 kts 174°
2026-05-08 03:48 58.66196 11.94189 26413 ft 324 kts 174°
2026-05-08 03:48 58.63967 11.94797 26056 ft 324 kts 173°
2026-05-08 03:48 58.61733 11.95404 25686 ft 324 kts 173°
2026-05-08 03:48 58.59498 11.96013 25325 ft 325 kts 173°
2026-05-08 03:49 58.57254 11.96622 24951 ft 326 kts 173°
2026-05-08 03:49 58.55002 11.97230 24573 ft 327 kts 173°
2026-05-08 03:49 58.52747 11.97835 24193 ft 329 kts 173°
2026-05-08 03:49 58.50472 11.98443 23801 ft 330 kts 173°
2026-05-08 03:50 58.48195 11.99049 23365 ft 331 kts 173°
2026-05-08 03:50 58.45914 11.99660 22963 ft 330 kts 173°
2026-05-08 03:50 58.43645 12.00268 22578 ft 329 kts 173°
2026-05-08 03:50 58.41377 12.00875 22187 ft 329 kts 173°
2026-05-08 03:51 58.39111 12.01482 21793 ft 329 kts 173°
2026-05-08 03:51 58.37580 12.01890 21531 ft 329 kts 173°
2026-05-08 03:51 58.34582 12.02686 21010 ft 329 kts 173°
2026-05-08 03:51 58.32317 12.03287 20611 ft 329 kts 173°
2026-05-08 03:52 58.30050 12.03889 20224 ft 329 kts 173°
2026-05-08 03:52 58.27782 12.04495 19828 ft 329 kts 173°
2026-05-08 03:52 58.25512 12.05101 19440 ft 330 kts 173°
2026-05-08 03:52 58.23241 12.05725 19034 ft 330 kts 172°
2026-05-08 03:53 58.21703 12.06210 18764 ft 331 kts 171°
2026-05-08 03:53 58.19437 12.06993 18343 ft 332 kts 170°
2026-05-08 03:53 58.17166 12.07816 17918 ft 331 kts 170°
2026-05-08 03:53 58.14911 12.08634 17520 ft 330 kts 170°
2026-05-08 03:54 58.12654 12.09440 17110 ft 329 kts 170°
2026-05-08 03:54 58.10407 12.10229 16719 ft 328 kts 171°
2026-05-08 03:54 58.08169 12.11006 16327 ft 327 kts 171°
2026-05-08 03:54 58.05939 12.11774 15932 ft 326 kts 171°
2026-05-08 03:55 58.03711 12.12534 15546 ft 325 kts 171°
2026-05-08 03:55 58.01491 12.13288 15151 ft 324 kts 171°
2026-05-08 03:55 57.99278 12.14041 14763 ft 323 kts 171°
2026-05-08 03:55 57.97068 12.14795 14374 ft 322 kts 171°
2026-05-08 03:56 57.94865 12.15546 13974 ft 321 kts 171°
2026-05-08 03:56 57.92670 12.16294 13555 ft 320 kts 171°
2026-05-08 03:56 57.90487 12.17035 13165 ft 318 kts 171°
2026-05-08 03:56 57.88319 12.17767 12777 ft 316 kts 170°
2026-05-08 03:57 57.86165 12.18497 12396 ft 314 kts 170°
2026-05-08 03:57 57.84019 12.19229 11981 ft 312 kts 170°
2026-05-08 03:57 57.81868 12.19599 11600 ft 310 kts 184°
2026-05-08 03:57 57.79764 12.18805 11217 ft 309 kts 200°
2026-05-08 03:58 57.77886 12.16901 10838 ft 309 kts 216°
2026-05-08 03:58 57.76196 12.14393 10444 ft 309 kts 218°
2026-05-08 03:58 57.74519 12.11900 10024 ft 309 kts 217°
2026-05-08 03:58 57.72829 12.09399 9588 ft 308 kts 217°
2026-05-08 03:59 57.71156 12.06938 9192 ft 306 kts 217°
2026-05-08 03:59 57.69490 12.04494 8799 ft 304 kts 217°
2026-05-08 03:59 57.67830 12.02055 8399 ft 303 kts 218°
2026-05-08 03:59 57.66177 11.99626 7999 ft 302 kts 218°
2026-05-08 04:00 57.64528 11.97208 7585 ft 301 kts 218°
2026-05-08 04:00 57.62885 11.94806 7190 ft 299 kts 217°
2026-05-08 04:00 57.61250 11.92415 6795 ft 298 kts 217°
2026-05-08 04:00 57.59607 11.90065 6389 ft 297 kts 212°
2026-05-08 04:01 57.57691 11.88750 5981 ft 294 kts 185°
2026-05-08 04:01 57.55696 11.89251 5587 ft 292 kts 158°
2026-05-08 04:01 57.54044 11.91439 5004 ft 297 kts 128°
2026-05-08 04:01 57.53024 11.94680 4870 ft 285 kts 118°
2026-05-08 04:02 57.52095 11.97872 4751 ft 275 kts 119°
2026-05-08 04:02 57.51183 12.00931 4620 ft 266 kts 118°
2026-05-08 04:02 57.50537 12.04083 4495 ft 258 kts 102°
2026-05-08 04:02 57.50414 12.07348 4372 ft 250 kts 85°
2026-05-08 04:03 57.50781 12.10438 4287 ft 241 kts 70°
2026-05-08 04:03 57.52844 12.15606 3229 ft 261 kts 36°
2026-05-08 04:03 57.54424 12.17229 3039 ft 256 kts 26°
2026-05-08 04:04 57.55994 12.18647 2881 ft 240 kts 27°
2026-05-08 04:04 57.57487 12.20002 2328 ft 238 kts 27°
2026-05-08 04:04 57.58896 12.21277 1909 ft 215 kts 27°
2026-05-08 04:04 57.60168 12.22427 1615 ft 191 kts 27°
2026-05-08 04:05 57.61319 12.23470 1333 ft 172 kts 27°
2026-05-08 04:05 57.62348 12.24416 1039 ft 157 kts 27°
2026-05-08 04:05 57.63290 12.25289 836 ft 146 kts 26°
2026-05-08 04:05 57.64185 12.26085 652 ft 140 kts 24°
2026-05-08 04:06 57.65089 12.26886 508 ft 142 kts 26°
2026-05-08 04:06 57.65870 12.27607 505 ft 102 kts 26°
2026-05-08 04:06 57.66391 12.28081 511 ft 69 kts 26°
2026-05-08 04:06 57.66755 12.28409 512 ft 49 kts 26°
2026-05-08 04:07 57.67054 12.28688 514 ft 47 kts 25°
2026-05-08 04:07 57.67347 12.28953 515 ft 46 kts 27°
2026-05-08 04:07 57.67448 12.29139 514 ft 14 kts 72°
2026-05-08 04:07 57.67452 12.29321 516 ft 15 kts 117°
2026-05-08 04:08 57.67357 12.29301 515 ft 16 kts 205°
2026-05-08 04:08 57.67257 12.29313 515 ft 17 kts 113°
2026-05-08 04:08 57.67207 12.29499 516 ft 15 kts 118°
2026-05-08 04:08 57.67121 12.29483 516 ft 15 kts 205°
2026-05-08 04:09 57.67022 12.29393 516 ft 11 kts 198°
2026-05-08 04:09 57.66974 12.29491 516 ft 12 kts 115°
2026-05-08 04:09 57.66971 12.29503 516 ft 0 kts 116°